[[{"header":{"parameterUnit":"m.s-1","parameterCategory":1,"la1":30.2991,"la2":30.254,"lo1":-89.0895,"lo2":-89.0444,"dy":0.0017,"dx":0.0017,"nx":28,"ny":28,"refTime":"2025-07-28T03:00:00:Z","depth":0,"parameterNumber":2,"parameterNumberName":"U-component_of_WINDS"},"data":[0,0,0,0,0,0,0,0,0,0,0,0,0,0,0,0,0,0,0,0,0,0,0,0,0,0,0,0,0,0,0,0,0,0,0,0,0,0,0,0,0,0,0,0,0,0,0,0,0,0,0,0,0,0,0,0,0,0,1.7114,1.7114,0,1.7155,1.7155,1.7156,1.709,1.7088,1.7086,1.7083,1.7133,1.7136,1.7139,0,0,0,0,0,0,0,0,0,0,0,0,0,1.6986,1.6988,1.7114,1.7114,1.7115,1.7155,1.7155,1.7156,1.7091,1.7088,1.7085,1.7082,1.7132,1.7136,1.714,0,0,0,0,0,0,0,0,0,0,0,0,0,1.7036,1.6989,1.7114,1.7087,1.7085,1.7155,1.7155,1.7156,1.7091,1.7088,1.7084,1.7081,1.713,1.7135,1.714,1.7241,0,0,1.7156,1.7158,0,0,0,0,0,0,0,0,1.7033,1.7041,1.709,1.7089,1.7087,1.7114,1.7128,1.7185,1.7092,1.7089,1.7083,1.7079,1.713,1.7135,1.715,1.7243,1.7245,1.7157,1.716,1.7162,1.7163,0,0,0,0,0,0,0,1.703,1.7038,1.713,1.7091,1.7089,1.7075,1.7078,1.7139,1.7128,1.7089,1.7084,1.709,1.7128,1.7145,1.7151,1.7246,1.7156,1.7161,1.7164,1.7166,1.7426,1.7429,0,0,0,0,0,0,1.7028,1.7036,1.7129,1.7131,1.7051,1.708,1.7084,1.7109,1.7127,1.7127,1.7093,1.7086,1.7138,1.7145,1.7152,1.7273,1.7162,1.7167,1.717,1.7422,1.7427,1.7431,0,0,0,0,0,0,1.7026,1.7037,1.7127,1.7082,1.7093,1.7086,1.7114,1.7111,1.7128,1.713,1.7128,1.7112,1.7136,1.7145,1.7219,1.7274,1.7169,1.7174,1.7418,1.7424,1.7429,1.7515,0,0,0,0,0,0,1.7023,1.7037,1.7073,1.7084,1.7095,1.7192,1.7118,1.7115,1.7137,1.7129,1.7147,1.7147,1.7134,1.7212,1.7224,1.7279,1.7178,1.7413,1.742,1.7427,1.7507,1.7523,1.7536,0,0,0,0,0,1.7018,1.7097,1.7075,1.7087,1.714,1.7195,1.7202,1.7183,1.7141,1.7179,1.718,1.7147,1.7265,1.722,1.7234,1.7291,1.7409,1.7418,1.7426,1.7501,1.752,1.7536,0,0,0,0,0,0,1.7096,1.7098,1.7074,1.7158,1.7177,1.7184,1.7231,1.7203,1.7236,1.7228,1.7204,1.7209,1.7289,1.7297,1.7247,1.739,1.7331,1.7342,1.7383,1.7401,1.7415,1.7413,1.7182,0,0,0,0,0,1.7122,1.7164,1.7164,1.7238,1.7249,1.7238,1.7261,1.7245,1.7264,1.7272,1.7279,1.7301,1.7343,1.7372,1.7411,1.7507,1.7512,1.7553,1.7568,1.7579,1.7591,1.7645,1.7665,1.7459,1.7459,1.7459,0,0,1.7178,1.7184,1.7213,1.7254,1.7266,1.7313,1.7246,1.7297,1.7333,1.7281,1.7352,1.7357,1.738,1.7467,1.7505,1.7476,1.7648,1.759,1.76,1.7605,1.7656,1.7676,1.7693,1.7465,1.7464,1.7463,0,0,1.7304,1.7312,1.7375,1.7389,1.7408,1.74,1.7416,1.7427,1.7428,1.7498,1.7461,1.7503,1.7576,1.7595,1.7614,1.7747,1.7719,1.776,1.7838,1.7891,1.7907,1.7922,1.7973,1.7991,1.7771,1.7771,1.7772,0,1.7372,1.7438,1.7412,1.7467,1.7488,1.744,1.7506,1.7521,1.7553,1.757,1.7535,1.7626,1.7638,1.773,1.7762,1.7778,1.7798,1.776,1.7906,1.7921,1.7934,1.7982,1.8001,1.7777,1.7776,1.7775,1.7775,0,1.7523,1.757,1.7619,1.7649,1.7675,1.7735,1.772,1.775,1.7731,1.7728,1.7801,1.7814,1.7856,1.7875,1.7858,1.7965,1.7947,1.791,1.785,1.7959,1.8004,1.8022,1.7784,1.7782,1.7781,1.7779,0,0,1.7702,1.7715,1.7734,1.7748,1.7765,1.7802,1.7861,1.7899,1.7927,1.795,1.8001,1.8063,1.803,1.8051,1.8035,1.8082,1.8191,1.8039,1.804,1.807,1.8314,1.8344,1.8365,1.817,1.8174,1.8176,1.8313,0,1.783,1.7929,1.7907,1.8006,1.8051,1.8006,1.8058,1.8076,1.8074,1.8114,1.8113,1.8159,1.8109,1.8122,1.8165,1.8168,1.824,1.8157,1.8221,1.8224,1.822,1.8388,1.842,1.8549,1.833,1.8333,1.8335,0,1.7993,1.8021,1.8124,1.8135,1.8153,1.8199,1.8234,1.8271,1.8291,1.8287,1.8311,1.8286,1.8348,1.8285,1.8371,1.8316,1.834,1.8345,1.835,1.8358,1.8289,1.8405,1.8589,1.8609,1.8362,1.836,1.8358,0,1.8117,1.818,1.825,1.8263,1.8277,1.8311,1.8319,1.8335,1.836,1.8391,1.8407,1.8445,1.8467,1.8498,1.8486,1.844,1.8576,1.8511,1.8578,1.8578,1.8611,1.861,1.8805,1.8621,1.8621,1.862,1.862,0,1.8265,1.8331,1.8307,1.8351,1.8424,1.8398,1.8472,1.8475,1.849,1.8535,1.8499,1.8543,1.8521,1.8565,1.8555,1.863,1.864,1.8641,1.8638,1.8646,1.8647,1.8665,1.8657,1.8625,1.8624,1.8623,1.8623,0,1.8418,1.8403,1.8478,1.8484,1.8487,1.8541,1.8548,1.859,1.8585,1.8644,1.8656,1.865,1.8699,1.8688,1.8743,1.8736,1.8831,1.8816,1.8824,1.8822,1.8891,1.8886,1.9107,1.9137,1.893,1.8932,1.8934,0,1.8515,1.8564,1.8575,1.8602,1.8612,1.8655,1.868,1.8657,1.8685,1.8712,1.8752,1.8797,1.8832,1.8914,1.8916,1.8958,1.8946,1.902,1.8952,1.8959,1.8951,1.895,1.8956,1.9035,1.9038,1.9039,1.9041,0,1.8689,1.868,1.8716,1.875,1.878,1.8806,1.8829,1.8854,1.8833,1.8867,1.8915,1.8943,1.8998,1.9045,1.9084,1.9094,1.9067,1.9062,1.908,1.9091,1.9095,1.9097,1.8865,1.9058,1.9056,1.9055,1.9054,1.9053,1.882,1.8862,1.8877,1.8919,1.8933,1.8955,1.8996,1.8995,1.9034,1.9076,1.906,1.9117,1.9137,1.9186,1.9202,1.9248,1.922,1.9246,1.9253,1.9261,1.9271,1.9084,1.9254,1.9254,1.9253,1.9253,1.9252,0,1.8996,1.9002,1.9041,1.9073,1.9107,1.9073,1.9097,1.9128,1.9178,1.9198,1.9233,1.929,1.9335,1.934,1.9384,1.942,1.9408,1.9433,1.9432,1.9435,1.9291,1.9272,1.9441,1.9441,1.9441,1.9441,1.9441,1.9441,1.9092,1.9163,1.9155,1.9234,1.924,1.9294,1.9311,1.9332,1.9348,1.9413,1.945,1.9451,1.9466,1.951,1.9551,1.9552,1.9571,1.9602,1.9598,1.9464,1.9445,1.9427,1.941,1.9605,1.9605,1.9739,1.974,1.9741]},{"header":{"parameterUnit":"m.s-1","parameterCategory":1,"la1":30.2991,"la2":30.254,"lo1":-89.0895,"lo2":-89.0444,"dy":0.0017,"dx":0.0017,"nx":28,"ny":28,"refTime":"2025-07-28T03:00:00:Z","depth":0,"parameterNumber":3,"parameterNumberName":"V-component_of_WINDS"},"data":[0,0,0,0,0,0,0,0,0,0,0,0,0,0,0,0,0,0,0,0,0,0,0,0,0,0,0,0,0,0,0,0,0,0,0,0,0,0,0,0,0,0,0,0,0,0,0,0,0,0,0,0,0,0,0,0,0,0,-0.7138,-0.7138,0,-0.7136,-0.7136,-0.7136,-0.7148,-0.7148,-0.7149,-0.7149,-0.7144,-0.7144,-0.7143,0,0,0,0,0,0,0,0,0,0,0,0,0,-0.7151,-0.7151,-0.7138,-0.7138,-0.7138,-0.7136,-0.7136,-0.7136,-0.7148,-0.7148,-0.7149,-0.7149,-0.7144,-0.7144,-0.7143,0,0,0,0,0,0,0,0,0,0,0,0,0,-0.7147,-0.7151,-0.7138,-0.7144,-0.7144,-0.7136,-0.7136,-0.7136,-0.7148,-0.7148,-0.7149,-0.7149,-0.7145,-0.7144,-0.7143,-0.7128,0,0,-0.7141,-0.7141,0,0,0,0,0,0,0,0,-0.7147,-0.7146,-0.7143,-0.7144,-0.7144,-0.7143,-0.7139,-0.7133,-0.7148,-0.7146,-0.7149,-0.715,-0.7143,-0.7143,-0.7141,-0.7128,-0.7128,-0.7141,-0.7141,-0.714,-0.714,0,0,0,0,0,0,0,-0.7147,-0.7146,-0.7137,-0.7143,-0.7144,-0.7146,-0.7146,-0.7138,-0.7142,-0.7147,-0.7147,-0.7147,-0.7143,-0.7142,-0.7141,-0.7128,-0.7141,-0.714,-0.714,-0.714,-0.7103,-0.7103,0,0,0,0,0,0,-0.7147,-0.7147,-0.7137,-0.7137,-0.7147,-0.7145,-0.7145,-0.7143,-0.7142,-0.7142,-0.7147,-0.7148,-0.7143,-0.7142,-0.7141,-0.7124,-0.714,-0.714,-0.7139,-0.7104,-0.7103,-0.7103,0,0,0,0,0,0,-0.7147,-0.7146,-0.7137,-0.7142,-0.7141,-0.7145,-0.7142,-0.7142,-0.7141,-0.7142,-0.7143,-0.7144,-0.7143,-0.7142,-0.7132,-0.7124,-0.7139,-0.7139,-0.7105,-0.7104,-0.7103,-0.7089,0,0,0,0,0,0,-0.7148,-0.7146,-0.7141,-0.7142,-0.7141,-0.7129,-0.7141,-0.7142,-0.714,-0.7141,-0.714,-0.714,-0.7143,-0.7133,-0.7131,-0.7123,-0.7138,-0.7105,-0.7104,-0.7103,-0.709,-0.7088,-0.7086,0,0,0,0,0,-0.7148,-0.7136,-0.7141,-0.7139,-0.7135,-0.7128,-0.7128,-0.7132,-0.7139,-0.7133,-0.7135,-0.714,-0.7125,-0.7132,-0.713,-0.7121,-0.7106,-0.7105,-0.7103,-0.7091,-0.7088,-0.7086,0,0,0,0,0,0,-0.7133,-0.7137,-0.7141,-0.713,-0.7129,-0.713,-0.7124,-0.7129,-0.7125,-0.7127,-0.7132,-0.7131,-0.712,-0.712,-0.7127,-0.7107,-0.7116,-0.7115,-0.7108,-0.7105,-0.7103,-0.7103,-0.7138,0,0,0,0,0,-0.7129,-0.7124,-0.7127,-0.7117,-0.7116,-0.712,-0.7117,-0.7121,-0.712,-0.7119,-0.712,-0.7118,-0.7113,-0.7109,-0.7104,-0.7091,-0.709,-0.7084,-0.7082,-0.708,-0.7078,-0.7071,-0.7068,-0.7099,-0.7099,-0.7099,0,0,-0.7119,-0.7121,-0.7117,-0.7114,-0.7113,-0.7108,-0.7119,-0.7113,-0.7109,-0.7118,-0.7109,-0.7109,-0.7107,-0.7095,-0.709,-0.7095,-0.707,-0.7078,-0.7077,-0.7076,-0.7069,-0.7066,-0.7064,-0.7098,-0.7098,-0.7098,0,0,-0.7099,-0.71,-0.7091,-0.7091,-0.7091,-0.7094,-0.7092,-0.7093,-0.7093,-0.7084,-0.7091,-0.7086,-0.7077,-0.7076,-0.7074,-0.7054,-0.7059,-0.7052,-0.704,-0.7033,-0.7031,-0.7029,-0.7021,-0.7019,-0.7051,-0.7051,-0.7051,0,-0.7086,-0.7079,-0.7086,-0.7079,-0.7077,-0.7087,-0.7078,-0.7077,-0.7075,-0.7073,-0.7079,-0.7068,-0.7068,-0.7056,-0.7051,-0.7049,-0.7047,-0.7052,-0.7031,-0.7029,-0.7027,-0.702,-0.7017,-0.705,-0.705,-0.705,-0.705,0,-0.7064,-0.7059,-0.7052,-0.7051,-0.7048,-0.704,-0.7046,-0.7042,-0.7047,-0.7049,-0.7039,-0.7039,-0.7035,-0.7033,-0.7036,-0.7021,-0.7024,-0.703,-0.7039,-0.7023,-0.7016,-0.7014,-0.7049,-0.7049,-0.7049,-0.705,0,0,-0.7033,-0.7037,-0.7034,-0.7034,-0.7035,-0.703,-0.7023,-0.702,-0.7017,-0.7015,-0.7009,-0.7002,-0.7008,-0.7006,-0.7009,-0.7003,-0.6987,-0.701,-0.701,-0.7005,-0.697,-0.6965,-0.6962,-0.6991,-0.6991,-0.699,-0.697,0,-0.7013,-0.7001,-0.7007,-0.6994,-0.699,-0.6999,-0.6993,-0.6992,-0.6995,-0.699,-0.6992,-0.6987,-0.6996,-0.6994,-0.6989,-0.699,-0.698,-0.6992,-0.6984,-0.6984,-0.6984,-0.6959,-0.6953,-0.6934,-0.6968,-0.6968,-0.6967,0,-0.6987,-0.6986,-0.6973,-0.6975,-0.6973,-0.6968,-0.6965,-0.6962,-0.6961,-0.6963,-0.6962,-0.6967,-0.696,-0.697,-0.6959,-0.6967,-0.6965,-0.6965,-0.6964,-0.6963,-0.6974,-0.6956,-0.6928,-0.6925,-0.6963,-0.6964,-0.6964,0,-0.6965,-0.696,-0.6952,-0.6951,-0.6954,-0.695,-0.6951,-0.6951,-0.6949,-0.6947,-0.6945,-0.6942,-0.694,-0.6937,-0.6942,-0.6949,-0.6931,-0.6941,-0.6932,-0.6931,-0.6926,-0.6926,-0.6897,-0.6926,-0.6926,-0.6926,-0.6926,0,-0.6941,-0.6933,-0.6942,-0.6937,-0.6927,-0.6935,-0.6925,-0.6927,-0.6928,-0.6923,-0.6931,-0.6926,-0.6932,-0.6928,-0.6931,-0.6922,-0.6921,-0.6922,-0.6923,-0.6921,-0.692,-0.6918,-0.6919,-0.6925,-0.6926,-0.6926,-0.6926,0,-0.6915,-0.6921,-0.6912,-0.6916,-0.6917,-0.691,-0.6913,-0.6908,-0.6911,-0.6905,-0.6903,-0.6908,-0.6903,-0.6908,-0.6903,-0.6905,-0.6893,-0.6896,-0.6893,-0.6894,-0.6884,-0.6884,-0.6851,-0.6847,-0.6879,-0.6879,-0.6879,0,-0.6899,-0.6893,-0.6896,-0.6894,-0.6895,-0.6891,-0.6889,-0.6896,-0.6894,-0.6894,-0.6889,-0.6885,-0.6882,-0.6874,-0.6876,-0.6873,-0.6875,-0.6864,-0.6875,-0.6873,-0.6874,-0.6874,-0.6874,-0.6861,-0.6861,-0.6861,-0.686,0,-0.687,-0.6873,-0.6871,-0.6869,-0.6867,-0.6866,-0.6865,-0.6863,-0.687,-0.6867,-0.6863,-0.6861,-0.6857,-0.6853,-0.685,-0.685,-0.6856,-0.6857,-0.6855,-0.6852,-0.6851,-0.6851,-0.6886,-0.6858,-0.6858,-0.6858,-0.6858,-0.6858,-0.6848,-0.6843,-0.6845,-0.6842,-0.6842,-0.6842,-0.6838,-0.6841,-0.6838,-0.6835,-0.684,-0.6834,-0.6835,-0.6832,-0.6832,-0.6827,-0.6832,-0.6828,-0.6827,-0.6826,-0.6825,-0.6852,-0.6827,-0.6827,-0.6827,-0.6827,-0.6827,0,-0.6818,-0.682,-0.6818,-0.6817,-0.6815,-0.6822,-0.6822,-0.682,-0.6815,-0.6815,-0.6813,-0.6808,-0.6804,-0.6807,-0.6804,-0.68,-0.6803,-0.6799,-0.6799,-0.6799,-0.6821,-0.6823,-0.6797,-0.6797,-0.6797,-0.6797,-0.6797,-0.6797,-0.6803,-0.6795,-0.6799,-0.6791,-0.6793,-0.6789,-0.6788,-0.6788,-0.6788,-0.6783,-0.678,-0.6783,-0.6784,-0.6781,-0.6778,-0.6779,-0.6777,-0.6772,-0.6774,-0.6794,-0.6797,-0.68,-0.6802,-0.6772,-0.6772,-0.6752,-0.6752,-0.6752]}]]